Welkom op de weersite van Veghel e.o.

Het is weer maart en dat betekend weer Lente.

Echter na de warme februari.

Nu weer onstuimig en regenachtig.

Het gezegde "maart roert zijn staart" is weer actueel.




Webcam Veghel  Webcam Veghel


waarschuwing voor Onweer Meer informatie blitzortung!


Regen radar Meer informatie rain snow radar


U vindt ons ook hier:

Het Weer Aktueel

European Weather Network

Weather Underground

Benelux Weer Netwerk

AWEKAS


Onweer van: 24-04-2019 18:00 tot: 21:00 waarschuwing voor: Onweer niveau: Geel info button
Onweersbuien met mogelijk hagel en windstoten tot 75 km/uur.Verkeer en buitenactiviteiten kunnen hinder ondervinden.Mijd open water en open gebied, schuil niet onder bomen.Volg weerberichten en waarschuwingen.

Weather Underground Historische gegevens

Dagelijkse Samenvatting april 24, 2019 Eenheden:  Metrisch    Engels   Beide
« Vorige Dag
Volgende Dag »
Dagelijkse Wekelijkse Maandelijkse Jaarlijkse Aangepaste
  Huidig: Hoog: Laag: Gemiddeld:
Temperatuur: -9.1 °C -17.8 °C -11.8 °C -8.1 °C
Dauwpunt: -11.8 °C -17.8 °C -13.9 °C -12.6 °C
Vochtigheid: 72 % Humidity % 33 % 62 %
Wind snelheid: 36.2 km/h 0 km/h 0 km/h 16.7 km/h
Windvlaag: 38.8 km/h 0 km/h - -
Wind:SSW - - SSE
Luchtdruk: 33856.6 hPa 0 hPa 33717.8 hPa -
Neerslag: 12.7 mm      
Historical Graphs
 
 
Tabel voor april 24, 2019
Tijd Temperatuur Dauwpunt Luchtdruk Wind Wind snelheid Windvlaag Vochtigheid Regenval per uur
-17.8 °C -17.8 °C 0 hPa Calm     Humidity % 0 mm
00:00 -10.7 °C -13.1 °C 33717.8 hPa East 2.6 km/h 2.6 km/h 75 % 0 mm
00:15 -10.8 °C -13 °C 33717.8 hPa East 2.6 km/h 5.1 km/h 77 % 0 mm
00:20 -10.9 °C -13.1 °C 33717.8 hPa East 2.6 km/h 5.1 km/h 77 % 0 mm
00:25 -10.9 °C -13 °C 33717.8 hPa East 2.6 km/h 2.6 km/h 78 % 0 mm
00:30 -10.9 °C -13 °C 33717.8 hPa Calm   2.6 km/h 78 % 0 mm
00:35 -10.9 °C -13 °C 33717.8 hPa Calm     78 % 0 mm
00:40 -11 °C -13.1 °C 33717.8 hPa Calm     78 % 0 mm
00:45 -11 °C -13 °C 33717.8 hPa Calm     79 % 0 mm
00:55 -11.2 °C -13.1 °C 33717.8 hPa Calm   5.1 km/h 79 % 0 mm
01:00 -11.2 °C -13.1 °C 33731.3 hPa East 2.6 km/h 5.1 km/h 80 % 0 mm
01:05 -11.3 °C -13.1 °C 33717.8 hPa East 5.1 km/h 5.1 km/h 80 % 0 mm
01:10 -11.3 °C -13.1 °C 33731.3 hPa East 5.1 km/h 7.7 km/h 81 % 0 mm
01:15 -11.3 °C -13.1 °C 33717.8 hPa East 5.1 km/h 7.7 km/h 81 % 0 mm
01:20 -11.3 °C -13.1 °C 33731.3 hPa East 7.7 km/h 7.7 km/h 81 % 0 mm
01:25 -11.3 °C -13.1 °C 33731.3 hPa East 7.7 km/h 7.7 km/h 81 % 0 mm
01:30 -11.4 °C -13.2 °C 33731.3 hPa East 7.7 km/h 7.7 km/h 81 % 0 mm
01:35 -11.4 °C -13.2 °C 33731.3 hPa East 7.7 km/h 7.7 km/h 81 % 0 mm
01:45 -11.5 °C -13.2 °C 33731.3 hPa ESE 7.7 km/h 7.7 km/h 81 % 0 mm
01:50 -11.5 °C -13.1 °C 33731.3 hPa ESE 7.7 km/h 7.7 km/h 82 % 0 mm
01:55 -11.4 °C -13.1 °C 33731.3 hPa SE 7.7 km/h 7.7 km/h 82 % 0 mm
02:00 -11.4 °C -13.1 °C 33731.3 hPa SE 7.7 km/h 7.7 km/h 82 % 0 mm
02:05 -11.4 °C -13 °C 33731.3 hPa SE 5.1 km/h 7.7 km/h 82 % 0 mm
02:10 -11.3 °C -13 °C 33731.3 hPa SE 7.7 km/h 7.7 km/h 82 % 0 mm
02:15 -11.3 °C -12.9 °C 33731.3 hPa SE 7.7 km/h 7.7 km/h 82 % 0 mm
02:20 -11.3 °C -12.9 °C 33731.3 hPa SE 5.1 km/h 5.1 km/h 82 % 0 mm
02:25 -11.2 °C -12.9 °C 33731.3 hPa SE 5.1 km/h 7.7 km/h 82 % 0 mm
02:30 -11.2 °C -12.9 °C 33731.3 hPa SE 5.1 km/h 7.7 km/h 82 % 0 mm
02:35 -11.2 °C -12.9 °C 33731.3 hPa SE 5.1 km/h 7.7 km/h 82 % 0 mm
02:40 -11.2 °C -12.8 °C 33731.3 hPa SE 5.1 km/h 5.1 km/h 82 % 0 mm
02:45 -11.2 °C -12.8 °C 33731.3 hPa SE 5.1 km/h 5.1 km/h 82 % 0 mm
02:50 -11.1 °C -12.8 °C 33731.3 hPa SE 5.1 km/h 5.1 km/h 82 % 0 mm
02:55 -11.1 °C -12.8 °C 33731.3 hPa SE 7.7 km/h 7.7 km/h 82 % 0 mm
03:00 -11.2 °C -12.8 °C 33731.3 hPa SE 7.7 km/h 7.7 km/h 82 % 0 mm
03:05 -11.2 °C -12.8 °C 33731.3 hPa SE 7.7 km/h 7.7 km/h 82 % 0 mm
03:10 -11.1 °C -12.8 °C 33731.3 hPa SE 7.7 km/h 7.7 km/h 82 % 0 mm
03:15 -11.1 °C -12.7 °C 33731.3 hPa SE 7.7 km/h 10.3 km/h 82 % 0 mm
03:20 -10.9 °C -12.7 °C 33731.3 hPa SE 7.7 km/h 7.7 km/h 81 % 0 mm
03:25 -10.9 °C -12.6 °C 33731.3 hPa SE 7.7 km/h 7.7 km/h 81 % 0 mm
03:30 -10.8 °C -12.7 °C 33731.3 hPa SE 7.7 km/h 10.3 km/h 80 % 0 mm
03:35 -10.7 °C -12.6 °C 33731.3 hPa SE 7.7 km/h 10.3 km/h 80 % 0 mm
03:40 -10.7 °C -12.7 °C 33731.3 hPa SE 7.7 km/h 7.7 km/h 79 % 0 mm
03:45 -10.7 °C -12.7 °C 33731.3 hPa SSE 7.7 km/h 10.3 km/h 79 % 0 mm
03:50 -10.7 °C -12.7 °C 33741.5 hPa SE 7.7 km/h 7.7 km/h 79 % 0 mm
03:55 -10.7 °C -12.7 °C 33741.5 hPa SE 7.7 km/h 7.7 km/h 79 % 0 mm
04:00 -10.7 °C -12.8 °C 33741.5 hPa SE 7.7 km/h 7.7 km/h 78 % 0 mm
04:15 -10.7 °C -12.7 °C 33741.5 hPa SE 7.7 km/h 7.7 km/h 79 % 0 mm
04:20 -10.8 °C -12.7 °C 33741.5 hPa SE 7.7 km/h 7.7 km/h 79 % 0 mm
04:25 -10.8 °C -12.8 °C 33741.5 hPa SE 7.7 km/h 7.7 km/h 79 % 0 mm
04:30 -10.9 °C -12.8 °C 33741.5 hPa SE 7.7 km/h 12.9 km/h 79 % 0 mm
04:35 -10.9 °C -12.9 °C 33741.5 hPa SE 7.7 km/h 7.7 km/h 79 % 0 mm
04:40 -10.9 °C -12.9 °C 33741.5 hPa SE 7.7 km/h 7.7 km/h 79 % 0 mm
04:45 -11.1 °C -12.9 °C 33741.5 hPa SSE 7.7 km/h 7.7 km/h 80 % 0 mm
04:50 -11.1 °C -12.9 °C 33741.5 hPa SSE 7.7 km/h 10.3 km/h 80 % 0 mm
04:55 -11.2 °C -13 °C 33741.5 hPa SSE 7.7 km/h 10.3 km/h 80 % 0 mm
05:00 -11.1 °C -12.9 °C 33741.5 hPa SE 10.3 km/h 10.3 km/h 81 % 0 mm
05:05 -11.1 °C -12.9 °C 33741.5 hPa SE 10.3 km/h 10.3 km/h 80 % 0 mm
05:10 -11.1 °C -12.9 °C 33751.6 hPa SE 7.7 km/h 7.7 km/h 80 % 0 mm
05:15 -11.1 °C -12.9 °C 33751.6 hPa SE 7.7 km/h 10.3 km/h 80 % 0 mm
05:20 -11.2 °C -13 °C 33751.6 hPa SE 7.7 km/h 10.3 km/h 80 % 0 mm
05:25 -11.2 °C -13.1 °C 33751.6 hPa SE 7.7 km/h 10.3 km/h 80 % 0 mm
05:30 -11.2 °C -13 °C 33751.6 hPa SE 7.7 km/h 7.7 km/h 81 % 0 mm
05:35 -11.3 °C -13.1 °C 33751.6 hPa SSE 10.3 km/h 10.3 km/h 81 % 0 mm
05:40 -11.3 °C -13.1 °C 33751.6 hPa SE 10.3 km/h 10.3 km/h 81 % 0 mm
05:45 -11.4 °C -13 °C 33751.6 hPa SE 7.7 km/h 10.3 km/h 82 % 0 mm
05:50 -11.4 °C -13.1 °C 33751.6 hPa SE 7.7 km/h 7.7 km/h 82 % 0 mm
05:55 -11.4 °C -13.1 °C 33751.6 hPa SE 7.7 km/h 10.3 km/h 82 % 0 mm
06:00 -11.4 °C -13.1 °C 33741.5 hPa SE 7.7 km/h 7.7 km/h 82 % 0 mm
06:05 -11.4 °C -13 °C 33741.5 hPa SE 7.7 km/h 7.7 km/h 83 % 0 mm
06:10 -11.5 °C -13 °C 33751.6 hPa SE 7.7 km/h 10.3 km/h 83 % 0 mm
06:15 -11.5 °C -13.2 °C 33751.6 hPa SE 7.7 km/h 10.3 km/h 82 % 0 mm
06:20 -11.6 °C -13.1 °C 33751.6 hPa SE 7.7 km/h 7.7 km/h 83 % 0 mm
06:25 -11.6 °C -13.1 °C 33751.6 hPa SE 7.7 km/h 7.7 km/h 83 % 0 mm
06:30 -11.6 °C -13.2 °C 33751.6 hPa SE 7.7 km/h 7.7 km/h 83 % 0 mm
06:35 -11.6 °C -13.2 °C 33751.6 hPa SE 7.7 km/h 7.7 km/h 83 % 0 mm
06:40 -11.7 °C -13.2 °C 33765.2 hPa SE 5.1 km/h 5.1 km/h 84 % 0 mm
06:45 -11.8 °C -13.2 °C 33765.2 hPa SE 5.1 km/h 5.1 km/h 84 % 0 mm
06:50 -11.8 °C -13.3 °C 33765.2 hPa ESE 7.7 km/h 12.9 km/h 84 % 0 mm
06:55 -11.8 °C -13.2 °C 33765.2 hPa SE 7.7 km/h 12.9 km/h 85 % 0 mm
07:00 -11.7 °C -13.1 °C 33765.2 hPa ESE 7.7 km/h 7.7 km/h 85 % 0 mm
07:15 -11.4 °C -12.8 °C 33765.2 hPa SE 7.7 km/h 10.3 km/h 84 % 0 mm
07:20 -11.3 °C -12.7 °C 33765.2 hPa SE 10.3 km/h 10.3 km/h 84 % 0 mm
07:25 -11.2 °C -12.7 °C 33765.2 hPa SE 10.3 km/h 10.3 km/h 83 % 0 mm
07:30 -11.1 °C -12.6 °C 33765.2 hPa SSE 7.7 km/h 10.3 km/h 83 % 0 mm
07:35 -11 °C -12.7 °C 33765.2 hPa SSE 7.7 km/h 10.3 km/h 82 % 0 mm
07:40 -10.9 °C -12.6 °C 33765.2 hPa SE 7.7 km/h 10.3 km/h 82 % 0 mm
07:45 -10.8 °C -12.6 °C 33765.2 hPa SE 7.7 km/h 10.3 km/h 81 % 0 mm
07:50 -10.7 °C -12.4 °C 33765.2 hPa SE 7.7 km/h 10.3 km/h 81 % 0 mm
07:55 -10.6 °C -12.4 °C 33765.2 hPa SE 7.7 km/h 7.7 km/h 80 % 0 mm
08:00 -10.5 °C -12.4 °C 33765.2 hPa SE 7.7 km/h 10.3 km/h 80 % 0 mm
08:05 -10.4 °C -12.4 °C 33765.2 hPa SE 5.1 km/h 10.3 km/h 79 % 0 mm
08:10 -10.3 °C -12.3 °C 33765.2 hPa ESE 5.1 km/h 5.1 km/h 79 % 0 mm
08:15 -10.3 °C -12.3 °C 33775.4 hPa SE 7.7 km/h 7.7 km/h 79 % 0 mm
08:20 -10.2 °C -12.2 °C 33775.4 hPa SE 10.3 km/h 10.3 km/h 79 % 0 mm
08:25 -10.1 °C -12.2 °C 33775.4 hPa ESE 10.3 km/h 10.3 km/h 78 % 0 mm
08:30 -9.9 °C -12.1 °C 33775.4 hPa SE 10.3 km/h 10.3 km/h 78 % 0 mm
08:35 -9.8 °C -12.1 °C 33775.4 hPa SE 10.3 km/h 10.3 km/h 77 % 0 mm
08:40 -9.7 °C -12 °C 33775.4 hPa SE 10.3 km/h 10.3 km/h 76 % 0 mm
08:45 -9.6 °C -12 °C 33775.4 hPa SSE 10.3 km/h 12.9 km/h 75 % 0 mm
08:50 -9.5 °C -11.9 °C 33775.4 hPa SE 10.3 km/h 10.3 km/h 75 % 0 mm
08:55 -9.3 °C -11.9 °C 33775.4 hPa SE 10.3 km/h 10.3 km/h 74 % 0 mm
09:00 -9.2 °C -11.8 °C 33775.4 hPa SSE 10.3 km/h 10.3 km/h 74 % 0 mm
09:05 -9.1 °C -11.8 °C 33775.4 hPa SE 7.7 km/h 10.3 km/h 73 % 0 mm
09:10 -9 °C -11.7 °C 33775.4 hPa SE 7.7 km/h 7.7 km/h 73 % 0 mm
09:15 -8.8 °C -11.7 °C 33788.9 hPa SE 7.7 km/h 7.7 km/h 72 % 0 mm
09:20 -8.7 °C -11.6 °C 33788.9 hPa SSE 10.3 km/h 10.3 km/h 72 % 0 mm
09:25 -8.7 °C -11.6 °C 33788.9 hPa SE 10.3 km/h 12.9 km/h 71 % 0 mm
09:30 -8.6 °C -11.6 °C 33788.9 hPa SE 7.7 km/h 7.7 km/h 70 % 0 mm
09:35 -8.5 °C -11.4 °C 33788.9 hPa SE 7.7 km/h 18.2 km/h 71 % 0 mm
09:40 -8.4 °C -11.3 °C 33788.9 hPa SE 10.3 km/h 10.3 km/h 71 % 0 mm
09:45 -8.3 °C -11.2 °C 33788.9 hPa SE 12.9 km/h 15.6 km/h 71 % 0 mm
09:50 -8.2 °C -11.3 °C 33788.9 hPa East 10.3 km/h 10.3 km/h 69 % 0 mm
09:55 -8 °C -11.3 °C 33788.9 hPa ESE 12.9 km/h 23.3 km/h 68 % 0 mm
10:00 -7.7 °C -11.3 °C 33788.9 hPa SE 12.9 km/h 15.6 km/h 66 % 0 mm
10:15 -7.3 °C -11.3 °C 33799.1 hPa SSE 18.2 km/h 18.2 km/h 63 % 0 mm
10:20 -7.1 °C -11.4 °C 33799.1 hPa SE 18.2 km/h 18.2 km/h 60 % 0 mm
10:25 -6.9 °C -11.3 °C 33799.1 hPa SE 18.2 km/h 33.6 km/h 60 % 0 mm
10:30 -6.8 °C -11.3 °C 33799.1 hPa SE 18.2 km/h 33.6 km/h 59 % 0 mm
10:35 -6.8 °C -11.6 °C 33799.1 hPa SSE 23.3 km/h 23.3 km/h 57 % 0 mm
10:40 -6.8 °C -11.5 °C 33799.1 hPa ESE 25.9 km/h 25.9 km/h 58 % 0 mm
10:50 -6.4 °C -11.5 °C 33799.1 hPa SSE 20.8 km/h 23.3 km/h 56 % 0 mm
10:55 -6.3 °C -11.5 °C 33799.1 hPa SSE 25.9 km/h 25.9 km/h 55 % 0 mm
11:00 -6.2 °C -11.4 °C 33788.9 hPa SSE 25.9 km/h 25.9 km/h 55 % 0 mm
11:05 -6.2 °C -11.5 °C 33788.9 hPa SSE 25.9 km/h 25.9 km/h 54 % 0 mm
11:10 -6 °C -11.3 °C 33788.9 hPa SSW 23.3 km/h 23.3 km/h 54 % 0 mm
11:15 -5.9 °C -11.4 °C 33788.9 hPa SE 20.8 km/h 23.3 km/h 53 % 0 mm
11:20 -5.7 °C -11.4 °C 33788.9 hPa SSE 20.8 km/h 20.8 km/h 52 % 0 mm
11:25 -5.6 °C -11.3 °C 33788.9 hPa SSE 20.8 km/h 20.8 km/h 52 % 0 mm
11:30 -5.4 °C -11.2 °C 33788.9 hPa SSE 23.3 km/h 23.3 km/h 52 % 0 mm
11:35 -5.4 °C -11.4 °C 33788.9 hPa SSE 23.3 km/h 25.9 km/h 50 % 0 mm
11:40 -5.3 °C -11.2 °C 33788.9 hPa SE 23.3 km/h 33.6 km/h 51 % 0 mm
11:45 -5.2 °C -11.5 °C 33788.9 hPa ENE 23.3 km/h 33.6 km/h 49 % 0 mm
11:50 -5.1 °C -11.4 °C 33788.9 hPa SSE 25.9 km/h 25.9 km/h 49 % 0 mm
11:55 -5.1 °C -11.3 °C 33788.9 hPa SE 23.3 km/h 31.1 km/h 49 % 0 mm
12:00 -4.9 °C -11.9 °C 33788.9 hPa SSE 23.3 km/h 28.5 km/h 45 % 0 mm
12:05 -4.8 °C -12 °C 33788.9 hPa SE 25.9 km/h 28.5 km/h 44 % 0 mm
12:10 -4.8 °C -12.1 °C 33788.9 hPa South 28.5 km/h 31.1 km/h 44 % 0 mm
12:15 -4.8 °C -11.8 °C 33788.9 hPa South 25.9 km/h 31.1 km/h 45 % 0 mm
12:20 -4.8 °C -12.2 °C 33788.9 hPa South 31.1 km/h 31.1 km/h 43 % 0 mm
12:25 -4.9 °C -12.1 °C 33788.9 hPa South 31.1 km/h 44.1 km/h 44 % 0 mm
12:30 -4.9 °C -12.1 °C 33799.1 hPa SSW 31.1 km/h 31.1 km/h 44 % 0 mm
12:35 -4.8 °C -12.2 °C 33799.1 hPa South 28.5 km/h 36.2 km/h 43 % 0 mm
12:40 -4.9 °C -12.2 °C 33799.1 hPa SSW 25.9 km/h 25.9 km/h 44 % 0 mm
12:45 -4.9 °C -12.1 °C 33809.2 hPa SSE 28.5 km/h 31.1 km/h 44 % 0 mm
12:50 -4.8 °C -11.8 °C 33799.1 hPa South 25.9 km/h 38.8 km/h 45 % 0 mm
12:55 -4.6 °C -12.2 °C 33809.2 hPa SSE 23.3 km/h 38.8 km/h 42 % 0 mm
13:00 -4.7 °C -12.3 °C 33799.1 hPa South 25.9 km/h 25.9 km/h 42 % 0 mm
13:15 -4.4 °C -12.1 °C 33799.1 hPa SSW 25.9 km/h 44.1 km/h 42 % 0 mm
13:20 -4.6 °C -12.4 °C 33799.1 hPa South 28.5 km/h 44.1 km/h 41 % 0 mm
13:25 -4.6 °C -12.2 °C 33799.1 hPa SSE 28.5 km/h 33.6 km/h 42 % 0 mm
13:30 -4.5 °C -12.3 °C 33799.1 hPa South 25.9 km/h 33.6 km/h 41 % 0 mm
13:35 -4.3 °C -11.8 °C 33799.1 hPa SSW 23.3 km/h 23.3 km/h 43 % 0 mm
13:40 -4.2 °C -12.1 °C 33788.9 hPa SSE 23.3 km/h 23.3 km/h 41 % 0 mm
13:45 -4.2 °C -12.4 °C 33788.9 hPa SSW 28.5 km/h 54.4 km/h 39 % 0 mm
13:50 -4.2 °C -12.7 °C 33788.9 hPa South 28.5 km/h 54.4 km/h 38 % 0 mm
13:55 -4.1 °C -12.3 °C 33788.9 hPa South 25.9 km/h 25.9 km/h 39 % 0 mm
14:00 -3.9 °C -12.9 °C 33788.9 hPa SSW 28.5 km/h 28.5 km/h 36 % 0 mm
14:05 -3.9 °C -12.7 °C 33799.1 hPa SE 31.1 km/h 31.1 km/h 37 % 0 mm
14:10 -3.9 °C -12.9 °C 33788.9 hPa South 31.1 km/h 31.1 km/h 36 % 0 mm
14:15 -3.9 °C -12.4 °C 33788.9 hPa SSW 31.1 km/h 31.1 km/h 38 % 0 mm
14:20 -3.8 °C -12.7 °C 33788.9 hPa SSW 25.9 km/h 41.4 km/h 36 % 0 mm
14:25 -3.8 °C -12.8 °C 33788.9 hPa South 25.9 km/h 41.4 km/h 36 % 0 mm
14:30 -3.8 °C -12.7 °C 33788.9 hPa SSW 25.9 km/h 28.5 km/h 36 % 0 mm
14:35 -3.7 °C -12.9 °C 33788.9 hPa South 31.1 km/h 59.5 km/h 35 % 0 mm
14:40 -3.6 °C -12.6 °C 33788.9 hPa SSE 31.1 km/h 31.1 km/h 36 % 0 mm
14:45 -3.7 °C -12.9 °C 33788.9 hPa SSW 28.5 km/h 31.1 km/h 35 % 0 mm
14:50 -3.7 °C -12.9 °C 33788.9 hPa SSE 31.1 km/h 62.1 km/h 35 % 0 mm
14:55 -3.7 °C -12.9 °C 33788.9 hPa SSE 31.1 km/h 62.1 km/h 35 % 0 mm
15:05 -3.9 °C -13.1 °C 33775.4 hPa SSE 31.1 km/h 62.1 km/h 35 % 0 mm
15:10 -3.7 °C -12.9 °C 33788.9 hPa South 31.1 km/h 62.1 km/h 35 % 0 mm
15:15 -3.8 °C -13.3 °C 33775.4 hPa SSW 28.5 km/h 44.1 km/h 34 % 0 mm
15:20 -4.1 °C -13 °C 33788.9 hPa South 31.1 km/h 44.1 km/h 36 % 0 mm
15:25 -3.9 °C -12.9 °C 33775.4 hPa SW 28.5 km/h 31.1 km/h 36 % 0 mm
15:30 -3.7 °C -12.9 °C 33775.4 hPa SSE 31.1 km/h 31.1 km/h 35 % 0 mm
15:35 -3.4 °C -12.7 °C 33775.4 hPa SSE 28.5 km/h 28.5 km/h 35 % 0 mm
15:40 -3.4 °C -12.8 °C 33775.4 hPa SSE 28.5 km/h 28.5 km/h 34 % 0 mm
15:45 -3.5 °C -13.2 °C 33775.4 hPa SSE 31.1 km/h 31.1 km/h 33 % 0 mm
15:50 -3.5 °C -13.2 °C 33775.4 hPa SSW 31.1 km/h 31.1 km/h 33 % 0 mm
15:55 -3.7 °C -13.1 °C 33775.4 hPa SW 31.1 km/h 36.2 km/h 34 % 0 mm
16:00 -3.8 °C -13.2 °C 33775.4 hPa SSW 31.1 km/h 38.8 km/h 34 % 0 mm
16:15 -3.9 °C -13.1 °C 33775.4 hPa SE 23.3 km/h 23.3 km/h 35 % 0 mm
16:20 -4.1 °C -13.3 °C 33788.9 hPa SSW 25.9 km/h 25.9 km/h 35 % 0 mm
16:30 -4.4 °C -13.1 °C 33788.9 hPa SSW 23.3 km/h 23.3 km/h 37 % 0 mm
16:35 -4.5 °C -12.9 °C 33788.9 hPa SSW 20.8 km/h 23.3 km/h 38 % 0 mm
16:40 -4.4 °C -12.9 °C 33775.4 hPa SSE 20.8 km/h 23.3 km/h 38 % 0 mm
16:45 -4.4 °C -12.9 °C 33775.4 hPa SW 23.3 km/h 23.3 km/h 38 % 0 mm
16:50 -4.4 °C -13.1 °C 33788.9 hPa South 23.3 km/h 33.6 km/h 37 % 0 mm
16:55 -4.5 °C -13.2 °C 33788.9 hPa ESE 28.5 km/h 33.6 km/h 37 % 0 mm
17:00 -4.5 °C -13.2 °C 33775.4 hPa SSE 31.1 km/h 31.1 km/h 37 % 0 mm
17:05 -4.4 °C -13.1 °C 33788.9 hPa SSE 28.5 km/h 36.2 km/h 37 % 0 mm
17:10 -4.5 °C -13.2 °C 33788.9 hPa SSW 31.1 km/h 41.4 km/h 37 % 0 mm
17:15 -4.6 °C -13 °C 33788.9 hPa South 33.6 km/h 41.4 km/h 38 % 0 mm
17:20 -4.6 °C -13.5 °C 33788.9 hPa SSW 31.1 km/h 31.1 km/h 36 % 0 mm
17:25 -4.7 °C -13.5 °C 33775.4 hPa SSW 28.5 km/h 31.1 km/h 36 % 0 mm
17:30 -4.7 °C -13.6 °C 33788.9 hPa SE 25.9 km/h 25.9 km/h 36 % 0 mm
17:35 -4.8 °C -13.4 °C 33775.4 hPa SW 25.9 km/h 38.8 km/h 37 % 0 mm
17:40 -4.8 °C -13.7 °C 33775.4 hPa SSW 25.9 km/h 25.9 km/h 36 % 0 mm
17:45 -4.8 °C -13.4 °C 33775.4 hPa South 23.3 km/h 28.5 km/h 37 % 0 mm
17:50 -4.9 °C -13.6 °C 33788.9 hPa SSW 20.8 km/h 25.9 km/h 37 % 0 mm
17:55 -5.1 °C -13.9 °C 33775.4 hPa South 25.9 km/h 25.9 km/h 36 % 0 mm
18:00 -5.2 °C -13.7 °C 33788.9 hPa South 28.5 km/h 28.5 km/h 37 % 0 mm
18:05 -5.2 °C -13.6 °C 33788.9 hPa SSW 25.9 km/h 28.5 km/h 38 % 0 mm
18:10 -5.3 °C -13.9 °C 33788.9 hPa SSW 28.5 km/h 28.5 km/h 37 % 0 mm
18:15 -5.3 °C -13.7 °C 33788.9 hPa SW 28.5 km/h 28.5 km/h 38 % 0 mm
18:20 -5.3 °C -13.5 °C 33788.9 hPa SW 25.9 km/h 33.6 km/h 39 % 0 mm
18:25 -5.4 °C -13.5 °C 33788.9 hPa SSW 25.9 km/h 36.2 km/h 39 % 0 mm
18:30 -5.4 °C -13.4 °C 33788.9 hPa SSW 23.3 km/h 25.9 km/h 40 % 0 mm
18:35 -5.5 °C -13.2 °C 33788.9 hPa SSW 23.3 km/h 31.1 km/h 41 % 0 mm
18:40 -5.7 °C -12.3 °C 33799.1 hPa SSW 25.9 km/h 25.9 km/h 47 % 0 mm
18:45 -6 °C -11.9 °C 33809.2 hPa SSW 25.9 km/h 25.9 km/h 51 % 0 mm
18:50 -6.3 °C -11.2 °C 33809.2 hPa SW 25.9 km/h 33.6 km/h 57 % 0 mm
18:55 -6.8 °C -10.9 °C 33809.2 hPa South 23.3 km/h 33.6 km/h 62 % 0 mm
19:00 -7.3 °C -10.9 °C 33809.2 hPa SW 23.3 km/h 25.9 km/h 66 % 0 mm
19:15 -7.8 °C -11.2 °C 33832.9 hPa SSW 31.1 km/h 31.1 km/h 68 % 0 mm
19:20 -7.9 °C -11.1 °C 33843.1 hPa SSW 33.6 km/h 36.2 km/h 70 % 0 mm
19:25 -8.3 °C -11.5 °C 33843.1 hPa South 41.4 km/h 46.7 km/h 69 % 0 mm
19:30 -8.7 °C -11.7 °C 33843.1 hPa South 46.7 km/h 49.2 km/h 70 % 0 mm
19:35 -8.9 °C -11.8 °C 33843.1 hPa SW 38.8 km/h 38.8 km/h 71 % 0 mm
19:40 -9.1 °C -11.8 °C 33856.6 hPa SSW 36.2 km/h 38.8 km/h 72 % 0 mm
Veghelsweer
Gegevens verzameld door Weather Underground - 2.75 mb

Script ontwikkeld door  Jim McMurry - jmcmurry@mwt.net Aangepast voor de template door  Wim van der Kuil - Leuven-Template.eu

Apparatuur in gebruik:

Weerstation
Davis VP2

Weerprogramma
WeatherLink

Weercomputer
Sponsor

Webleverancier
My provider

Davis VP2

WeatherLink

Sponsor

My provider